Change the Weather History Date:

Tuesday, October 22, 2013

  Actual Average Record
Temperature  
Mean Temperature 36 °F -  
Max Temperature 45 °F 56 °F 81 °F (1947)
Min Temperature 28 °F 33 °F 13 °F (1913)
Degree Days  
Heating Degree Days 28    
Moisture  
Dew Point 25 °F    
Average Humidity 69    
Maximum Humidity 88    
Minimum Humidity 48    
Precipitation  
Precipitation 0.00 in - - ()
Sea Level Pressure  
Sea Level Pressure 29.94 in    
Wind  
Wind Speed 10 mph (NW)    
Max Wind Speed 14 mph    
Max Gust Speed 18 mph    
Visibility 10 miles    
Events      
Averages and records for this station are not official NWS values.
T = Trace of Precipitation, MM = Missing Value Source: NWS Daily Summary

Daily Weather History Graph

Daily Weather History Graph

Search for Another Location

Airport or City:

Trip Planner

Search our weather history database for the weather conditions in past years. The results will help you decide how hot, cold, wet, or windy it might be!

Date:

Astronomy

Oct. 22, 2013 Rise Set
Actual Time 7:25 AM CDT 6:04 PM CDT
Civil Twilight 6:55 AM CDT 6:33 PM CDT
Nautical Twilight 6:21 AM CDT 7:07 PM CDT
Astronomical Twilight 5:47 AM CDT 7:41 PM CDT
Moon 8:38 PM CDT (10/22) 11:00 AM CDT (10/22)
Length of Visible Light 11h 38m
Length of Day
10h 38m
Waning Gibbous, 86% of the Moon is Illuminated
Oct 22
Waning Gibbous
Oct 26
Last Quarter
Nov 3
New
Nov 9
First Quarter
Nov 17
Full

Hourly Weather History & Observations

Time (CDT) Temp. Windchill Dew Point Humidity Pressure Visibility Wind Dir Wind Speed Gust Speed Precip Events Conditions
12:54 AM 33.1 °F 24.9 °F 23.0 °F 66% 29.91 in 10.0 mi West 10.4 mph - N/A   Overcast
1:27 AM 32.0 °F 23.6 °F 24.8 °F 75% 29.86 in 10.0 mi WNW 10.4 mph - N/A   Mostly Cloudy
1:38 AM 30.2 °F 21.3 °F 23.0 °F 75% 29.86 in 10.0 mi West 10.4 mph - N/A   Scattered Clouds
1:54 AM 30.9 °F 22.2 °F 23.0 °F 72% 29.91 in 10.0 mi West 10.4 mph - N/A   Partly Cloudy
2:06 AM 32.0 °F 24.8 °F 24.8 °F 75% 29.88 in 10.0 mi West 8.1 mph - N/A   Mostly Cloudy
2:54 AM 30.9 °F 22.8 °F 24.1 °F 76% 29.92 in 10.0 mi West 9.2 mph - N/A   Mostly Cloudy
3:21 AM 30.2 °F 22.6 °F 24.8 °F 80% 29.88 in 10.0 mi West 8.1 mph - N/A   Scattered Clouds
3:41 AM 30.2 °F 21.9 °F 24.8 °F 80% 29.88 in 10.0 mi West 9.2 mph - N/A   Mostly Cloudy
3:54 AM 30.9 °F 22.2 °F 25.0 °F 79% 29.94 in 10.0 mi West 10.4 mph - N/A   Overcast
4:54 AM 30.0 °F 21.1 °F 25.0 °F 82% 29.93 in 10.0 mi West 10.4 mph - N/A   Scattered Clouds
5:54 AM 28.9 °F 20.4 °F 25.0 °F 85% 29.94 in 10.0 mi WNW 9.2 mph - N/A   Clear
6:54 AM 28.0 °F 21.7 °F 25.0 °F 88% 29.95 in 10.0 mi WNW 5.8 mph - N/A   Clear
7:54 AM 28.0 °F 20.0 °F 25.0 °F 88% 29.96 in 10.0 mi WNW 8.1 mph - N/A   Clear
8:54 AM 32.0 °F 23.6 °F 28.0 °F 85% 29.95 in 10.0 mi NW 10.4 mph - N/A   Clear
9:54 AM 37.0 °F 28.9 °F 28.0 °F 70% 29.96 in 10.0 mi NW 12.7 mph 18.4 mph N/A   Clear
10:54 AM 39.9 °F 33.9 °F 28.0 °F 63% 29.96 in 10.0 mi NNW 9.2 mph - N/A   Clear
11:54 AM 42.1 °F 37.7 °F 28.9 °F 60% 29.96 in 10.0 mi NNW 6.9 mph 17.3 mph N/A   Partly Cloudy
12:54 PM 43.0 °F 37.2 °F 27.0 °F 53% 29.95 in 10.0 mi NNW 10.4 mph - N/A   Mostly Cloudy
1:54 PM 42.1 °F 36.6 °F 25.0 °F 51% 29.94 in 10.0 mi North 9.2 mph 17.3 mph N/A   Mostly Cloudy
2:54 PM 45.0 °F 38.5 °F 26.1 °F 48% 29.94 in 10.0 mi NNW 13.8 mph 18.4 mph N/A   Mostly Cloudy
3:54 PM 41.0 °F 34.3 °F 25.0 °F 53% 29.95 in 10.0 mi NW 11.5 mph - N/A   Mostly Cloudy
4:54 PM 41.0 °F 34.3 °F 26.1 °F 55% 29.96 in 10.0 mi NW 11.5 mph - N/A   Overcast
5:54 PM 39.9 °F 33.9 °F 26.1 °F 58% 29.97 in 10.0 mi NW 9.2 mph - N/A   Overcast
6:54 PM 39.0 °F 32.3 °F 26.1 °F 60% 29.98 in 10.0 mi NNW 10.4 mph - N/A   Overcast
7:54 PM 37.9 °F 30.9 °F 25.0 °F 60% 29.99 in 10.0 mi North 10.4 mph - N/A   Overcast
8:54 PM 36.0 °F 30.3 °F 25.0 °F 64% 30.00 in 10.0 mi North 6.9 mph - N/A   Overcast
9:54 PM 35.1 °F 29.3 °F 25.0 °F 67% 30.01 in 10.0 mi NNW 6.9 mph - N/A   Overcast
10:54 PM 35.1 °F 27.4 °F 23.0 °F 61% 30.00 in 10.0 mi North 10.4 mph - N/A   Overcast
11:54 PM 34.0 °F 27.2 °F 21.9 °F 61% 29.99 in 10.0 mi North 8.1 mph - N/A   Overcast